SCP
0 0 0 0 0 0 0 0 0 0 0 0 0 0 0 0 0 0 0 0 0 0 0 0 0 0 0 0 0 0 0 0 0 0 0 0 0 0 0 0 0 0 0 0 0 0 0 0 0
0 0 0 0 0 0 0 0 0 0 0 0 0 0 0 0 0 0 0 0 0 0 0 0 0 0 0 0 0 0 0 0 0 0 0 0 0 0 0 0 0 0 0 0 0 0 0 0 0
0 0 0 0 0 0 0 0 0 0 0 0 0 0 0 0 0 0 0 0 0 0 0 0 0 0 0 0 0 0 0 0 0 0 0 0 0 0 0 0 0 0 0 0 0 0 0 0 0
0 0 0 0 0 0 0 0 0 0 0 0 0 0 0 0 0 0 0 0 0 0 0 0 0 0 0 0 0 0 0 0 0 0 0 0 0 0 0 0 0 0 0 0 0 0 0 0 0
0 0 0 0 0 0 0 0 0 0 0 0 0 0 0 0 0 0 0 0 0 0 0 0 0 0 0 0 0 0 0 0 0 0 0 0 0 0 0 0 0 0 0 0 0 0 0 0 0
-0 -0 0 0 0 0 0 0 0 0 0 0 0 0 0 0 0 0 0 0 0 0 0 0 0 0 0 0 0 0 0 0 0 0 0 0 0 0 0 0 0 0 0 0 0 0 0 0 0
0 0 0 0 0 0 0 0 0 0 0 0 0 0 0 0 0 0 0 0 0 0 0 0 0 0 0 0 0 0 0 0 0 0 0 0 0 0 0 0 0 0 0 0 0 0 0 0 0
0 0 0 0 0 0 0 0 0 0 0 0 0 0 0 0 0 0 0 0 0 0 0 0 0 0 0 0 0 0 0 0 0 0 0 0 0 0 0 0 0 0 0 0 0 0 0 0 0
0 0 0 0 0 0 0 0 0 0 0 0 0 0 0 0 0 0 0 0 0 0 0 0 0 0 0 0 0 0 0 0 0 0 0 0 0 0 0 0 0 0 0 0 0 0 0 0 0
0 0 0 0 0 0 0 0 0 0 0 0 0 0 0 0 0 0 0 0 0 0 0 0 0 0 0 0 0 0 0 0 0 0 0 0 0 0 0 0 0 0 0 0 0 0 0 0 0
0 0 0 0 0 0 0 0 0 0 0 0 0 0 0 0 0 0 0 0 0 0 0 0 0 0 0 0 0 0 0 0 0 0 0 0 0 0 0 0 0 0 0 0 0 0 0 0 0
0 0 0 0 0 0 0 0 0 0 0 0 0 0 0 0 0 0 0 0 0 0 0 0 0 0 0 0 0 0 0 0 0 0 0 0 0 0 0 0 0 0 0 0 0 0 0 0 0
0 0 0 0 0 0 0 0 0 0 0 0 0 0 0 0 0 0 0 0 0 0 0 0 0 0 0 0 0 0 0 0 0 0 0 0 0 0 0 0 0 0 0 0 0 0 0 0 0
0 0 0 0 0 0 0 0 0 0 0 0 0 1 0 0 0 0 0 0 0 0 0 0 0 0 0 0 0 0 0 0 0 0 0 0 0 0 0 0 0 0 0 0 0 0 0 0 0
0 0 0 0 0 0 0 0 0 0 0 0 0 1 0 0 0 0 0 0 0 0 0 0 0 0 0 0 0 0 0 0 0 0 0 0 0 0 0 0 0 0 0 0 0 0 0 0 0
0 0 0 0 0 0 0 0 0 0 0 0 0 0 0 0 0 0 0 0 0 0 0 0 0 0 0 0 0 0 0 0 0 0 0 0 0 0 0 0 0 0 0 0 0 0 0 0 0
0 0 0 0 0 0 0 0 0 0 0 0 0 0 0 0 0 0 0 0 0 0 0 0 0 0 0 0 0 0 0 0 0 0 0 0 0 0 0 0 0 0 0 0 0 0 0 0 0
0 0 0 0 0 0 0 0 0 0 0 0 0 0 0 0 0 0 0 0 0 0 0 0 0 0 0 0 0 0 0 0 0 0 0 0 0 0 0 0 0 0 0 0 0 0 0 0 0
0 0 0 0 0 0 0 0 0 0 0 0 0 0 0 0 0 0 0 0 0 0 0 0 0 0 0 0 0 0 0 0 0 0 0 0 0 0 0 0 0 0 0 0 0 0 0 0 0
0 0 0 0 0 0 0 0 0 0 0 0 0 0 0 0 0 0 0 0 0 0 0 0 0 0 0 0 0 0 0 0 0 0 0 0 0 0 0 0 0 0 0 0 0 0 0 0 0
0 0 0 0 0 0 0 0 0 0 0 0 0 0 0 0 0 0 0 0 0 0 0 0 0 0 0 0 0 0 0 0 0 0 0 0 0 0 0 0 0 0 0 0 0 0 0 0 0
0 0 0 0 0 0 0 0 0 0 0 0 0 0 0 0 0 0 0 0 0 0 0 0 0 0 0 0 0 0 0 0 0 0 0 0 0 0 0 0 0 0 0 0 0 0 0 0 0
0 0 0 0 0 0 0 0 0 0 0 0 0 0 0 0 0 0 0 0 0 0 0 0 0 0 0 0 0 0 0 0 0 0 0 0 0 0 0 0 0 0 0 0 0 0 0 0 0
0 0 0 0 0 0 0 0 0 0 0 0 0 0 0 0 0 0 0 0 0 0 0 0 0 0 0 0 0 0 0 0 0 0 0 0 0 0 0 0 0 0 0 0 0 0 0 0 0
0 0 0 0 0 0 0 0 0 0 0 0 0 0 0 0 0 0 0 0 0 0 0 0 0 0 0 0 0 0 0 0 0 0 0 0 0 0 0 0 0 0 0 0 0 0 0 0 0
0 0 0 0 0 0 0 0 0 0 0 0 0 0 0 0 0 0 0 0 0 0 0 0 0 0 0 0 0 0 0 0 0 0 0 0 0 0 0 0 0 0 0 0 0 0 0 0 0
0 0 0 0 0 0 0 0 0 0 0 0 0 0 0 0 0 0 0 0 0 0 0 0 0 0 0 0 0 0 0 0 0 0 0 0 0 0 0 0 0 0 0 0 0 0 0 0 0
0 0 0 0 0 0 0 0 0 0 0 0 0 0 0 0 0 0 0 0 0 0 0 0 0 0 0 0 0 0 0 0 0 0 0 0 0 0 0 0 0 0 0 0 0 0 0 0 0
0 0 0 0 0 0 0 0 0 0 0 0 0 0 0 0 0 0 0 0 0 0 0 0 0 0 0 0 0 0 0 0 0 0 0 0 0 0 0 0 0 0 0 0 0 0 0 0 0
0 0 0 0 0 0 0 0 0 0 0 0 0 0 0 0 0 0 0 0 0 0 0 0 0 0 0 0 0 0 0 0 0 0 0 0 0 0 0 0 0 0 0 0 0 0 0 0 0
Wind_Speed
7 5 2 1 4 6 2 2 1 2 1 1 3 4 5 3 2 2 1 6 7 6 5 6 8 9 10 10 10 10 10 10 10 9 9 8 8 8 8 8 8 8 7 8 8 8 8 8 8
4 4 1 3 5 3 2 2 1 1 2 2 4 4 5 3 2 4 3 5 8 7 4 5 8 9 9 10 10 10 10 10 9 8 8 8 8 8 8 8 8 7 7 8 8 8 8 7 7
4 2 3 4 4 3 1 1 1 1 2 2 3 4 3 2 3 4 4 8 7 5 4 5 9 9 9 9 10 10 10 9 9 8 8 7 7 7 7 7 7 6 6 7 7 7 6 6 6
2 2 4 5 2 2 3 2 2 2 2 4 4 4 3 2 4 4 8 9 8 5 3 5 9 9 9 9 9 10 9 9 8 8 7 7 6 6 6 6 6 5 5 5 6 6 5 5 5
3 4 5 3 2 2 2 2 2 2 1 3 4 4 2 3 5 9 9 8 7 5 3 3 7 7 8 9 9 9 9 8 8 7 6 6 5 4 5 5 4 4 4 4 5 5 5 4 5
4 5 5 1 3 2 1 1 2 2 2 3 4 4 1 2 6 8 8 7 6 5 3 2 6 7 8 9 10 9 8 7 7 6 5 5 4 3 4 4 4 3 3 4 4 4 4 4 4
4 4 3 2 1 2 1 1 3 3 3 2 4 4 1 2 4 7 7 6 5 4 3 1 2 4 7 9 9 8 7 6 5 5 4 4 3 2 2 3 2 2 3 3 3 4 4 4 4
4 5 2 1 1 2 1 1 2 3 2 3 4 6 4 4 7 8 7 6 4 3 2 2 2 2 2 3 6 7 6 5 4 4 4 3 2 2 1 1 2 2 2 3 3 3 4 4 4
3 5 2 4 4 3 1 2 1 2 4 2 1 3 5 11 11 9 6 4 3 3 2 2 2 2 2 2 4 4 4 4 3 2 2 3 2 2 2 1 1 1 2 2 3 3 3 3 3
4 3 6 4 4 3 2 2 3 3 3 1 2 5 10 13 12 10 8 7 6 5 3 2 2 2 2 2 2 1 1 1 1 1 2 2 2 2 2 2 2 1 1 1 2 3 3 3 2
3 5 4 2 3 3 2 2 2 6 4 6 7 11 13 13 11 9 8 7 6 5 4 3 2 2 2 1 2 1 1 1 1 1 1 1 1 1 2 1 2 2 2 1 2 2 2 2 1
2 3 3 2 1 2 3 3 3 5 6 5 10 14 14 13 11 10 9 7 5 5 5 4 3 2 2 1 1 1 1 1 0 0 1 1 1 1 1 1 1 1 1 1 1 1 2 2 1
2 2 2 2 2 2 3 2 3 3 2 8 11 12 12 11 9 7 7 6 5 5 5 4 4 4 2 2 1 2 1 1 1 0 0 1 1 0 0 0 1 1 1 1 1 1 1 1 2
2 1 2 1 1 1 5 1 2 2 5 10 12 11 10 10 9 6 5 5 6 6 5 4 5 4 3 2 1 1 1 1 1 0 0 1 1 1 1 1 1 0 0 1 1 2 2 1 1
1 2 4 2 0 1 5 2 1 3 8 10 10 9 9 8 7 7 7 6 6 5 5 5 5 4 4 3 2 2 1 1 1 0 0 1 1 1 1 1 0 0 1 1 2 2 2 2 1
3 3 2 3 1 1 6 3 3 4 9 8 8 8 8 6 6 5 5 5 4 4 4 5 5 5 4 3 2 2 1 1 1 0 1 1 1 1 1 1 0 0 1 1 2 2 2 1 1
4 1 1 3 1 2 3 3 3 4 8 8 7 7 7 5 4 4 5 5 5 4 4 4 3 5 4 3 2 2 2 1 1 1 1 1 1 1 1 1 0 1 2 1 1 2 2 1 1
3 2 1 2 1 3 1 2 2 3 7 7 6 6 6 7 6 5 4 5 4 4 4 4 3 3 4 3 3 2 2 1 1 0 0 1 1 1 1 1 1 1 2 1 1 2 2 1 1
4 3 2 4 2 2 1 1 1 2 4 4 4 4 5 4 2 3 4 4 4 3 3 4 4 3 3 2 2 2 1 0 0 0 0 1 1 1 1 1 1 1 1 1 2 2 2 1 1
3 2 1 2 1 2 2 1 0 1 4 5 6 6 6 4 3 3 4 4 4 4 4 4 4 4 3 2 2 2 2 1 1 1 1 1 1 1 1 1 1 1 1 1 1 2 1 1 1
3 5 4 3 2 3 3 3 1 1 1 1 1 2 3 5 5 4 4 4 4 4 4 4 4 4 3 2 3 3 2 1 1 0 0 1 1 1 1 1 1 1 1 1 1 2 2 1 0
4 5 5 4 3 1 2 2 4 1 0 1 2 2 3 3 3 3 4 3 3 3 3 3 3 3 2 3 4 4 3 2 2 1 1 0 0 1 1 1 1 1 1 1 1 2 1 2 1
5 2 4 3 4 1 1 3 5 0 2 4 4 3 3 3 4 4 3 3 2 2 3 3 3 3 2 3 3 3 2 1 1 0 0 0 0 0 1 1 1 1 1 1 1 2 2 2 2
4 6 6 5 5 1 3 4 5 4 6 4 3 3 3 3 3 3 3 3 3 3 2 2 3 2 2 3 3 3 3 2 2 0 0 0 1 1 1 1 1 1 1 1 1 1 2 2 2
4 6 4 4 3 4 1 3 6 4 4 4 5 5 4 4 4 4 4 3 3 3 2 2 3 2 2 2 2 2 2 2 2 1 1 0 0 1 1 1 1 1 1 1 1 1 1 1 1
3 8 8 5 5 3 1 3 5 2 1 2 3 4 4 4 4 4 4 4 3 3 3 3 2 2 1 2 1 1 1 1 1 1 1 1 1 2 1 1 1 1 1 1 1 1 1 1 1
5 3 6 7 2 1 2 3 4 1 2 3 4 5 4 4 4 4 3 3 3 3 2 3 3 2 1 1 1 1 1 1 1 1 1 1 1 1 1 1 1 1 1 1 1 1 1 1 1
4 7 5 6 6 2 2 3 4 4 3 2 3 4 3 3 3 3 3 2 2 2 1 2 2 2 1 1 1 1 0 0 1 0 1 1 1 1 0 1 1 1 1 1 1 1 1 1 2
3 3 5 4 5 6 3 6 5 6 6 6 5 4 4 3 3 3 2 2 2 2 2 2 2 2 2 1 1 1 0 1 1 0 1 1 1 1 1 1 1 1 1 1 1 2 2 2 2
3 5 6 5 3 4 4 6 3 4 4 5 5 4 4 3 3 3 3 3 2 2 2 2 1 1 1 1 2 1 1 1 1 1 2 1 1 1 1 1 1 1 1 1 2 2 2 2 2
Wind_Direction
140 134 136 111 56 50 22 312 278 348 22 41 88 99 111 105 137 160 132 136 135 140 148 157 155 152 149 144 140 137 132 127 123 123 122 121 119 118 120 121 121 119 118 119 121 125 124 123 125
141 150 128 63 75 56 328 300 312 268 151 118 84 80 78 70 72 111 132 146 137 140 143 155 157 152 149 146 143 140 136 132 130 128 125 122 120 118 119 120 120 120 119 120 120 121 120 121 122
161 173 87 70 84 149 220 263 189 70 85 84 78 62 82 110 127 147 158 140 128 134 142 163 159 155 150 148 145 143 139 136 135 131 126 122 122 121 122 122 123 121 122 124 125 122 120 120 124
135 61 54 66 72 215 201 213 166 103 40 53 85 69 58 70 146 150 138 136 132 137 147 166 163 160 156 152 150 147 144 142 140 134 129 125 124 123 127 127 126 126 127 127 129 125 123 121 124
68 77 58 40 322 274 221 216 174 119 82 66 86 90 48 23 100 125 135 138 140 139 147 169 163 158 157 155 148 145 146 146 142 138 136 133 131 129 135 136 132 134 138 137 134 128 126 127 128
60 65 75 15 305 297 255 199 130 116 105 96 101 107 69 94 122 136 135 131 132 136 139 155 159 150 150 151 149 149 148 148 143 141 141 142 141 140 149 145 142 142 140 139 139 137 131 130 131
99 90 123 185 284 307 224 121 135 126 113 130 125 113 110 131 134 129 120 113 114 122 127 129 135 141 145 147 153 155 150 147 144 145 144 145 145 144 149 142 139 146 143 139 141 145 138 131 130
120 101 104 202 201 263 226 105 121 124 137 125 124 140 180 177 130 112 102 101 106 108 118 122 105 105 120 141 156 156 152 147 146 148 140 125 116 113 97 108 133 150 147 142 138 137 133 129 129
92 80 179 208 191 216 166 112 118 118 113 112 129 155 157 135 128 118 112 112 128 144 139 129 122 110 108 127 153 150 151 145 141 126 119 93 54 46 42 48 114 122 121 126 128 128 123 112 109
93 141 220 215 188 179 163 156 166 121 124 137 84 96 122 134 140 144 150 159 170 177 174 156 153 140 126 143 115 89 102 94 81 61 58 56 51 42 51 45 71 88 86 98 108 110 113 98 79
149 194 232 241 202 175 158 171 158 141 185 201 173 150 143 145 151 158 166 174 182 181 177 172 166 150 145 137 122 100 74 69 61 60 72 68 55 41 35 35 38 41 47 43 62 72 78 87 96
180 239 220 242 187 170 171 153 148 189 211 176 155 150 149 156 165 171 174 180 174 170 181 172 162 154 157 140 130 128 118 113 115 101 109 103 75 45 37 33 23 39 46 63 58 64 66 74 88
207 265 265 225 237 192 139 155 160 210 145 118 129 142 154 163 169 174 173 172 168 177 186 180 170 172 168 145 154 140 153 161 170 142 134 140 134 130 61 46 40 36 61 100 106 97 82 74 60
226 261 302 292 255 163 133 121 118 219 135 129 139 152 160 168 171 167 169 175 180 184 186 180 175 175 162 163 168 157 153 150 116 117 133 138 140 146 125 90 63 40 82 119 124 121 108 85 62
7 14 357 348 67 140 110 40 237 175 138 142 152 159 163 170 167 172 177 179 181 182 179 182 177 167 166 172 173 158 150 142 136 146 100 119 144 158 146 116 100 67 92 95 98 99 98 95 73
49 54 5 307 17 116 121 212 257 150 144 154 162 165 168 174 176 177 171 167 168 168 172 184 176 163 164 165 160 146 140 134 143 124 100 123 133 136 125 114 108 95 93 90 104 100 94 83 66
36 78 247 304 335 111 122 211 253 151 154 162 170 171 170 172 177 179 170 165 166 166 169 168 161 155 155 146 130 120 116 114 115 96 109 118 109 99 108 105 50 96 98 89 116 101 108 110 77
210 188 226 249 290 81 96 243 267 176 162 169 172 170 173 185 195 182 170 163 158 160 159 147 140 138 136 123 103 82 72 61 79 105 97 88 90 94 105 95 66 98 100 87 90 100 94 111 110
171 170 220 251 251 99 144 205 267 169 155 167 173 180 189 197 188 158 157 148 136 134 139 139 143 144 141 134 133 125 130 77 23 358 59 98 96 94 103 96 76 93 124 138 125 115 104 92 94
162 176 225 315 37 119 126 42 316 177 187 186 184 191 192 178 151 151 146 139 145 152 149 145 145 149 165 166 148 138 132 131 109 9 17 41 99 109 131 120 135 134 123 112 122 113 115 100 99
199 189 193 195 29 50 96 5 328 300 78 76 167 184 182 181 166 154 141 144 142 150 159 159 151 153 152 143 111 91 77 62 67 6 294 280 185 142 133 139 138 113 119 146 156 138 139 152 100
242 215 174 166 126 264 129 201 272 241 114 179 192 185 174 151 136 143 146 143 149 155 141 136 137 142 149 145 142 148 159 178 212 220 224 311 350 157 159 146 140 131 136 148 175 143 149 145 155
207 128 132 145 140 90 31 144 275 294 237 231 212 198 184 158 144 146 146 147 132 114 118 124 120 120 126 131 140 146 155 181 186 117 74 343 316 235 195 175 160 156 175 187 166 148 158 160 166
142 72 60 51 79 130 232 159 256 226 216 214 203 195 186 167 150 139 121 105 96 92 96 103 108 107 118 127 126 138 152 150 128 135 235 292 307 312 303 229 189 190 196 205 197 175 167 175 171
97 93 45 8 21 244 246 163 240 243 221 203 196 199 189 165 154 144 139 130 115 113 117 105 109 97 102 118 127 147 157 154 160 182 207 239 290 276 272 240 223 219 210 205 190 170 182 180 181
158 140 157 187 208 257 343 216 249 267 248 168 163 164 155 157 159 159 163 155 147 141 142 129 127 117 118 137 157 154 150 154 184 200 196 211 235 253 274 245 228 227 215 207 180 179 210 163 195
135 169 160 129 133 128 276 284 303 52 74 96 112 125 144 160 158 155 143 137 137 148 161 158 151 137 139 160 163 168 185 181 197 207 204 222 241 255 290 284 267 251 233 204 173 192 219 189 202
135 145 107 120 142 203 275 257 244 233 209 169 146 150 162 158 153 134 127 134 146 158 146 134 139 150 133 126 131 128 192 220 213 190 241 248 271 291 296 287 277 287 273 240 196 215 218 201 229
107 93 103 111 148 154 206 259 228 206 199 189 186 173 163 160 156 144 136 130 118 103 109 105 106 98 102 128 125 108 61 37 52 282 269 268 284 288 266 255 255 261 267 255 223 230 217 218 243
149 152 147 149 194 164 166 254 290 204 186 173 171 161 151 142 135 139 131 116 112 112 105 101 99 106 128 139 118 109 78 41 39 307 293 286 283 287 273 259 255 259 260 252 237 245 241 227 236